Barcelona, Spain

10:59 PM CET on February 24, 2018 (GMT +0100)
El Prat

Weather History for LEBL - February, 2018

Change the Weather History Date:

Saturday, February 17, 2018

  Actual Average Record
Temperature  
Mean Temperature 52 °F -  
Max Temperature 59 °F 57 °F 69 °F (2000)
Min Temperature 46 °F 43 °F 30 °F (2003)
Degree Days  
Heating Degree Days 12    
Growing Degree Days 2 (Base 50)    
Moisture  
Dew Point 50 °F    
Average Humidity 89    
Maximum Humidity 100    
Minimum Humidity 70    
Precipitation  
Precipitation 0.01 in 0.06 in - ()
Sea Level Pressure  
Sea Level Pressure 30.14 in    
Wind  
Wind Speed 7 mph ()    
Max Wind Speed 16 mph    
Max Gust Speed 20 mph    
Visibility 4.0 miles    
Events Fog , Rain    
Averages and records for this station are not official NWS values.
T = Trace of Precipitation, MM = Missing Value Source: Averaged Metar Reports

Daily Weather History Graph

Daily Weather History Graph

Search for Another Location

Airport or City:

Trip Planner

Search our weather history database for the weather conditions in past years. The results will help you decide how hot, cold, wet, or windy it might be!

Date:

Astronomy

Feb. 17, 2018 Rise Set
Actual Time 7:44 AM CET 6:27 PM CET
Civil Twilight 7:15 AM CET 6:56 PM CET
Nautical Twilight 6:43 AM CET 7:28 PM CET
Astronomical Twilight 6:11 AM CET 8:00 PM CET
Moon 8:41 AM CET (2/17) 8:09 PM CET (2/17)
Length of Visible Light 11h 40m
Length of Day
10h 43m
New Moon, 2% of the Moon is Illuminated
Feb 17
New Moon
Feb 23
First Quarter
Mar 2
Full
Mar 9
Last Quarter
Mar 17
New

Hourly Weather History & Observations

Time (CET) Temp. Windchill Dew Point Humidity Pressure Visibility Wind Dir Wind Speed Gust Speed Precip Events Conditions
12:00 AM 53 °F - 51 °F 92% 30.17 in 3 mi WSW 9.2 mph - -   Mist
12:00 AM 51.8 °F - 51.8 °F 100% 30.15 in 2.8 mi WSW 8.1 mph - N/A   Mostly Cloudy
12:30 AM 51.8 °F - 50.0 °F 94% 30.15 in 2.2 mi SW 11.5 mph - N/A   Partly Cloudy
12:50 AM 51.8 °F - 50.0 °F 94% 30.15 in 1.8 mi SW 10.4 mph - N/A   Partly Cloudy
1:00 AM 53 °F - 51 °F 91% 30.17 in 2 mi WSW 9.2 mph - -   Mist
1:00 AM 51.8 °F - 50.0 °F 94% 30.15 in 1.8 mi SW 11.5 mph - N/A   Scattered Clouds
1:14 AM 51.8 °F - 51.8 °F 100% 30.15 in - SW 10.4 mph - N/A   Mostly Cloudy
1:30 AM 51.8 °F - 51.8 °F 100% 30.15 in 2.5 mi WSW 11.5 mph - N/A   Mostly Cloudy
1:44 AM 51.8 °F - 50.0 °F 94% 30.15 in 1.4 mi WSW 9.2 mph - N/A   Mostly Cloudy
2:00 AM 52 °F - 50 °F 92% 30.15 in 1 mi West 6.9 mph - -   Mist
2:00 AM 51.8 °F - 50.0 °F 94% 30.15 in 1.2 mi WSW 6.9 mph - N/A   Mostly Cloudy
2:18 AM 51.8 °F - 50.0 °F 94% 30.12 in 1.6 mi WSW 5.8 mph - N/A   Scattered Clouds
2:30 AM 51.8 °F - 50.0 °F 94% 30.12 in 1.9 mi WSW 8.1 mph - N/A   Mostly Cloudy
3:00 AM 52 °F - 51 °F 95% 30.14 in 2 mi WSW 10.4 mph - -   Mist
3:00 AM 51.8 °F - 50.0 °F 94% 30.12 in 2.5 mi SW 11.5 mph - N/A   Mostly Cloudy
3:30 AM 51.8 °F - 50.0 °F 94% 30.12 in - WSW 10.4 mph - N/A   Mostly Cloudy
4:00 AM 52 °F - 50 °F 91% 30.12 in 2 mi West 8.1 mph - -   Mist
4:00 AM 51.8 °F - 50.0 °F 94% 30.12 in - West 8.1 mph - N/A   Mostly Cloudy
4:30 AM 51.8 °F - 50.0 °F 94% 30.09 in - WSW 6.9 mph - N/A   Mostly Cloudy
5:00 AM 51 °F - 50 °F 94% 30.12 in 2 mi West 8.1 mph - -   Mist
5:00 AM 50.0 °F - 50.0 °F 100% 30.09 in - WSW 9.2 mph - N/A   Mostly Cloudy
5:30 AM 50.0 °F - 48.2 °F 94% 30.09 in 1.7 mi West 6.9 mph - N/A   Mostly Cloudy
6:00 AM 49 °F - 48 °F 95% 30.11 in 3 mi West 4.6 mph - -   Mist
6:00 AM 48.2 °F - 48.2 °F 100% 30.09 in 2.5 mi West 4.6 mph - N/A   Partly Cloudy
6:24 AM 48.2 °F - 46.4 °F 93% 30.09 in 1.2 mi NW 4.6 mph - N/A   Partly Cloudy
6:30 AM 48.2 °F - 46.4 °F 93% 30.09 in 1.2 mi NW 4.6 mph - N/A   Partly Cloudy
6:46 AM 46.4 °F 43.5 °F 46.4 °F 100% 30.09 in 0.9 mi NW 5.8 mph - N/A Fog Patches of Fog
7:00 AM 48 °F - 46 °F 91% 30.11 in 1 mi North 2.3 mph - -   Mist
7:00 AM 46.4 °F 43.5 °F 46.4 °F 100% 30.09 in 0.6 mi NW 5.8 mph - N/A Fog Fog
7:17 AM 46.4 °F 43.5 °F 46.4 °F 100% 30.09 in 1.3 mi NW 5.8 mph - N/A Fog Partly Cloudy
7:30 AM 48.2 °F - 46.4 °F 93% 30.09 in - WNW 5.8 mph - N/A Fog Mist
8:00 AM 48 °F - 46 °F 92% 30.12 in 2 mi North 2.3 mph - -   Mist
8:00 AM 46.4 °F 45.2 °F 46.4 °F 100% 30.09 in - West 3.5 mph - N/A Fog Partly Cloudy
8:30 AM 48.2 °F - 46.4 °F 93% 30.09 in - NW 5.8 mph - N/A   Partly Cloudy
9:00 AM 48.2 °F - 48.2 °F 100% 30.12 in - NW 5.8 mph - N/A   Partly Cloudy
9:30 AM 48.2 °F - 48.2 °F 100% 30.12 in 2.5 mi NW 5.8 mph - N/A   Partly Cloudy
10:00 AM 53 °F - 51 °F 90% 30.13 in 3 mi North 3.5 mph - -   Mist
10:00 AM 51.8 °F - 50.0 °F 94% 30.12 in 2.8 mi WNW 5.8 mph - N/A   Partly Cloudy
10:30 AM 55.4 °F - 51.8 °F 88% 30.12 in 3.1 mi NW 3.5 mph - N/A   Mist
11:00 AM 56 °F - 52 °F 82% 30.14 in 5 mi WNW 4.6 mph - -   Mist
11:00 AM 53.6 °F - 51.8 °F 94% 30.12 in 3.1 mi West 5.8 mph - N/A   Mist
11:30 AM 55.4 °F - 50.0 °F 82% 30.12 in 3.1 mi NW 5.8 mph 19.6 mph N/A   Partly Cloudy
12:00 PM 58 °F - 51 °F 70% 30.15 in 7 mi ENE 6.9 mph - -   Clear
12:00 PM 57.2 °F - 50.0 °F 77% 30.12 in 3.7 mi NE 3.5 mph - N/A   Partly Cloudy
12:30 PM 59.0 °F - 50.0 °F 72% 30.12 in 3.7 mi ENE 9.2 mph - N/A   Unknown
1:00 PM 58 °F - 51 °F 71% 30.14 in 4 mi East 13.8 mph - -   Mist
1:00 PM 59.0 °F - 51.8 °F 77% 30.12 in 3.7 mi NE 15.0 mph - N/A   Partly Cloudy
1:30 PM 55.4 °F - 50.0 °F 82% 30.12 in 2.8 mi ENE 13.8 mph - N/A   Mostly Cloudy
1:40 PM 55.4 °F - 51.8 °F 88% 30.12 in 2.8 mi ENE 11.5 mph - N/A   Overcast
2:00 PM 57 °F - 52 °F 78% 30.14 in 6 mi East 16.1 mph - -   Mist
2:00 PM 55.4 °F - 51.8 °F 88% 30.12 in 2.5 mi ENE 11.5 mph - N/A   Overcast
2:30 PM 55.4 °F - 51.8 °F 88% 30.12 in 2.5 mi ENE 15.0 mph - N/A   Mostly Cloudy
3:00 PM 55.4 °F - 51.8 °F 88% 30.12 in 2.5 mi ENE 12.7 mph - N/A   Mostly Cloudy
3:30 PM 55.4 °F - 51.8 °F 88% 30.12 in 2.5 mi ENE 10.4 mph - N/A   Mostly Cloudy
4:00 PM 57 °F - 52 °F 78% 30.15 in 3 mi East 8.1 mph - -   Mist
4:00 PM 57.2 °F - 51.8 °F 82% 30.12 in 2.8 mi ENE 8.1 mph - N/A   Mostly Cloudy
4:30 PM 55.4 °F - 51.8 °F 88% 30.12 in 2.8 mi East 3.5 mph - N/A   Mostly Cloudy
5:00 PM 57 °F - 53 °F 82% 30.15 in 7 mi ESE 5.8 mph - -   Clear
5:00 PM 55.4 °F - 53.6 °F 94% 30.15 in 2.8 mi ESE 4.6 mph - N/A   Mostly Cloudy
5:30 PM 55.4 °F - 53.6 °F 94% 30.15 in 3.7 mi ESE 5.8 mph - N/A   Mostly Cloudy
6:00 PM 57 °F - 51 °F 76% 30.16 in 19 mi ESE 8.1 mph - -  
6:00 PM 55.4 °F - 50.0 °F 82% 30.15 in 5.6 mi ESE 6.9 mph - N/A   Mostly Cloudy
6:30 PM 55.4 °F - 50.0 °F 82% 30.15 in 5.6 mi East 4.6 mph - N/A   Mostly Cloudy
7:00 PM 55.4 °F - 50.0 °F 82% 30.15 in 6.2 mi SE 3.5 mph - N/A   Mostly Cloudy
7:30 PM 55.4 °F - 48.2 °F 77% 30.18 in 6.2 mi SSE 4.6 mph - N/A   Mostly Cloudy
8:00 PM 55.4 °F - 48.2 °F 77% 30.18 in 6.2 mi South 3.5 mph - N/A   Mostly Cloudy
8:30 PM 55.4 °F - 48.2 °F 77% 30.18 in 6.2 mi SSW 4.6 mph - N/A   Mostly Cloudy
9:00 PM 55 °F - 50 °F 79% 30.20 in 7 mi SW 6.9 mph - - Rain Light Rain
9:00 PM 53.6 °F - 50.0 °F 88% 30.18 in 6.2 mi SW 5.8 mph - N/A   Light Drizzle
9:30 PM 53.6 °F - 50.0 °F 88% 30.18 in 6.2 mi SW 9.2 mph - N/A   Light Drizzle
10:00 PM 53 °F - 51 °F 89% 30.20 in 16 mi WSW 5.8 mph - - Rain Light Drizzle
10:00 PM 51.8 °F - 50.0 °F 94% 30.18 in 6.2 mi WSW 6.9 mph - N/A   Light Drizzle
10:30 PM 53.6 °F - 51.8 °F 94% 30.18 in 6.2 mi WSW 10.4 mph - N/A   Mostly Cloudy
11:00 PM 55 °F - 51 °F 80% 30.21 in 19 mi SSW 8.1 mph - -  
11:00 PM 53.6 °F - 50.0 °F 88% 30.18 in 6.2 mi South 9.2 mph - N/A   Mostly Cloudy
11:30 PM 53.6 °F - 50.0 °F 88% 30.21 in 6.2 mi SSE 5.8 mph - N/A Rain Light Rain